Weather History for Avoca, PA

Change the Weather History Date:

Monday, March 4, 2013

  Actual Average Record
Temperature  
Mean Temperature 29 °F 33 °F  
Max Temperature 35 °F 42 °F 68 °F (1974)
Min Temperature 23 °F 24 °F 0 °F (1943)
Degree Days  
Heating Degree Days 36 32  
Month to date heating degree days 144 130  
Since 1 July heating degree days 4368 4736  
Cooling Degree Days 0 0  
Month to date cooling degree days 0 0  
Year to date cooling degree days 0 0  
Moisture  
Dew Point 16 °F    
Average Humidity 58    
Maximum Humidity 69    
Minimum Humidity 47    
Precipitation  
Precipitation T in 0.07 in 1.09 in (1917)
Month to date precipitation T 0.28  
Year to date precipitation 3.33 4.68  
Sea Level Pressure  
Sea Level Pressure 29.90 in    
Wind  
Wind Speed 16 mph (NW)    
Max Wind Speed 25 mph    
Max Gust Speed 32 mph    
Visibility 10 miles    
Events      
T = Trace of Precipitation, MM = Missing Value Source: NWS Daily Summary

Daily Weather History Graph

Daily Weather History Graph

Search for Another Location

Airport:

Trip Planner

Search our weather history database for the weather conditions in past years. The results will help you decide how hot, cold, wet, or windy it might be!

Date:

Astronomy

Mar. 04, 2013 Rise Set
Actual Time 6:32 AM EST 5:57 PM EST
Civil Twilight 6:04 AM EST 6:25 PM EST
Nautical Twilight 5:32 AM EST 6:57 PM EST
Astronomical Twilight 5:00 AM EST 7:29 PM EST
Moon 12:41 AM EST (3/4) 10:34 AM EST (3/4)
Length of Visible Light 12h 20m
Length of Day
11h 25m
Waning Gibbous, 52% of the Moon is Illuminated
Mar 4
Waning Gibbous
Mar 4
Last Quarter
Mar 11
New
Mar 19
First Quarter
Mar 27
Full

Hourly Weather History & Observations

Time (EST) Temp. Windchill Dew Point Humidity Pressure Visibility Wind Dir Wind Speed Gust Speed Precip Events Conditions
12:54 AM 24.1 °F 13.1 °F 15.1 °F 69% 29.84 in 10.0 mi NW 11.5 mph 21.9 mph N/A   Overcast
1:54 AM 24.1 °F 11.5 °F 15.1 °F 69% 29.84 in 10.0 mi NW 15.0 mph 23.0 mph N/A   Overcast
2:54 AM 24.1 °F 12.0 °F 15.1 °F 69% 29.84 in 10.0 mi NW 13.8 mph - N/A   Overcast
3:54 AM 24.1 °F 12.0 °F 16.0 °F 71% 29.84 in 10.0 mi NW 13.8 mph 23.0 mph N/A   Overcast
4:54 AM 24.1 °F 13.1 °F 15.1 °F 69% 29.86 in 10.0 mi NW 11.5 mph 21.9 mph N/A   Overcast
5:54 AM 24.1 °F 11.0 °F 14.0 °F 65% 29.88 in 10.0 mi NW 16.1 mph 31.1 mph N/A   Overcast
6:54 AM 24.1 °F 11.0 °F 14.0 °F 65% 29.89 in 9.0 mi West 16.1 mph - N/A   Overcast
7:54 AM 24.1 °F 11.5 °F 12.0 °F 60% 29.91 in 10.0 mi NNW 15.0 mph 26.5 mph 0.00 in   Overcast
8:08 AM 24.8 °F 13.4 °F 12.2 °F 59% 29.87 in 10.0 mi NW 12.7 mph 25.3 mph N/A   Overcast
8:31 AM 24.8 °F 12.9 °F 12.2 °F 59% 29.87 in 10.0 mi West 13.8 mph 21.9 mph N/A   Overcast
8:54 AM 24.1 °F 13.1 °F 12.0 °F 60% 29.91 in 10.0 mi WNW 11.5 mph 20.7 mph N/A   Overcast
9:54 AM 25.0 °F 12.2 °F 12.9 °F 60% 29.90 in 10.0 mi WNW 16.1 mph 21.9 mph N/A   Overcast
10:19 AM 26.6 °F 14.3 °F 12.2 °F 55% 29.87 in 10.0 mi WNW 16.1 mph - N/A   Overcast
10:54 AM 26.1 °F 15.0 °F 14.0 °F 60% 29.91 in 10.0 mi NW 12.7 mph 24.2 mph N/A   Overcast
11:27 AM 28.4 °F 15.8 °F 15.8 °F 59% 29.87 in 10.0 mi NW 18.4 mph 24.2 mph N/A   Overcast
11:54 AM 28.9 °F 17.3 °F 15.1 °F 56% 29.90 in 10.0 mi NW 16.1 mph 20.7 mph N/A   Overcast
12:54 PM 33.1 °F 23.0 °F 16.0 °F 50% 29.87 in 10.0 mi WNW 15.0 mph 24.2 mph N/A   Overcast
1:54 PM 34.0 °F 23.0 °F 16.0 °F 48% 29.86 in 10.0 mi NW 18.4 mph 26.5 mph N/A   Partly Cloudy
2:54 PM 33.1 °F 20.6 °F 16.0 °F 50% 29.87 in 10.0 mi WNW 23.0 mph 27.6 mph N/A   Overcast
3:54 PM 33.1 °F 20.9 °F 16.0 °F 50% 29.88 in 10.0 mi NW 21.9 mph 28.8 mph N/A   Overcast
4:54 PM 32.0 °F 20.5 °F 17.1 °F 54% 29.89 in 10.0 mi WNW 18.4 mph 23.0 mph N/A   Overcast
5:54 PM 30.9 °F 19.4 °F 18.0 °F 59% 29.91 in 10.0 mi NW 17.3 mph 21.9 mph N/A   Overcast
6:54 PM 30.9 °F 19.4 °F 18.0 °F 59% 29.93 in 10.0 mi WNW 17.3 mph 26.5 mph N/A   Overcast
7:54 PM 30.0 °F 17.9 °F 18.0 °F 61% 29.95 in 10.0 mi WNW 18.4 mph - N/A   Overcast
8:54 PM 30.0 °F 18.7 °F 19.0 °F 64% 29.97 in 10.0 mi WNW 16.1 mph - N/A   Overcast
9:54 PM 28.9 °F 18.2 °F 19.0 °F 67% 29.97 in 10.0 mi NW 13.8 mph - N/A   Overcast
10:54 PM 28.9 °F 17.7 °F 19.0 °F 67% 29.98 in 10.0 mi WNW 15.0 mph - N/A   Overcast
11:54 PM 28.9 °F 17.3 °F 19.9 °F 69% 29.98 in 10.0 mi NW 16.1 mph 25.3 mph N/A   Overcast